Regional Weather Roundup
Issued by NWS

Home | Current Version | Previous Version | Graphics & Text | Print | Product List | Glossary On
Versions: 1 2 3 4 5 6 7 8 9 10 11 12 13 14 15 16 17 18 19 20 21 22 23 24 25 26 27 28 29 30 31 32 33 34 35 36 37 38 39 40 41 42 43 44 45 46 47 48 49 50
979
ASUS44 KMEG 221010
RWRTN
TENNESSEE HOURLY STATE WEATHER ROUNDUP
NATIONAL WEATHER SERVICE MEMPHIS TN
500 AM CDT TUE MAY 22 2018

TNZ002-004-019-021-049-052-054-088>092-221100-
WEST TENNESSEE

CITY           SKY/WX    TMP DP  RH WIND       PRES   REMARKS
MEMPHIS INTL   FAIR      72  70  93 S6        30.00R
NWS MEMPHIS      N/A     69 N/A N/A MISG        N/A
JACKSON        FAIR      70  69  97 S5        30.01S
DYERSBURG      CLOUDY    71  70  96 CALM      30.01S
COVINGTON      CLOUDY    70  70 100 CALM      30.00S FOG
BOLIVAR        PTCLDY    68  66  94 CALM      30.02R
PARIS          PTCLDY    70  68  94 S3        30.02S
HUNTINGDON     PTCLDY    70  68  94 CALM      30.01S
LEXINGTON      CLOUDY    68  66  94 CALM      30.03R
SELMER         CLOUDY    68  66  94 CALM      30.03R
SAVANNAH       CLOUDY    66  64  94 CALM      30.03R
$$

TNZ008-025-027-028-033-062-065-066-221100-
NORTH MIDDLE TENNESSEE

CITY           SKY/WX    TMP DP  RH WIND       PRES   REMARKS
NASHVILLE      MOCLDY    66  62  87 S6        30.05S
DICKSON        CLOUDY    68  64  88 VRB3      30.04S
PORTLAND       CLOUDY    68  63  83 S6        30.05S
CLARKSVILLE    CLOUDY    68  64  87 CALM      30.03R
SMYRNA         FAIR      64  62  93 SE3       30.07R
MURFREESBORO   CLOUDY    66  63  88 CALM      30.05R
COOKEVILLE     CLOUDY    70  64  83 S6        30.08R
LIVINGSTON     PTSUNNY   68  61  77 SW5       30.08S
GALLATIN       CLOUDY    66  64  94 CALM      30.08S
CROSSVILLE     CLOUDY    68  61  78 SE3       30.13R
$$

TNZ061-075-076-078-094-096-097-221100-
SOUTH MIDDLE TENNESSEE

CITY           SKY/WX    TMP DP  RH WIND       PRES   REMARKS
LEWISBURG      PTSUNNY   61  61 100 CALM      30.06R
FAYETTEVILLE   CLOUDY    70  66  88 CALM      30.06S
TULLAHOMA      CLOUDY    68  64  88 CALM      30.07S
WINCHESTER     MOCLDY    70  64  83 S6        30.07S
MCMINNVILLE    CLOUDY    68  64  88 CALM      30.08R
COLUMBIA       CLEAR     64  64 100 CALM      30.04R
SHELBYVILLE    MOCLDY    66  64  94 CALM      30.06S
$$

TNZ017-018-042-046-047-221100-
NORTHEAST TENNESSEE

CITY           SKY/WX    TMP DP  RH WIND       PRES   REMARKS
TRI CITIES     FOG       61  61 100 CALM      30.13R VSB 1/2
ELIZABETHTON     N/A     63  61  94 VRB5      30.14R
GREENEVILLE    PTSUNNY   63  63 100 CALM      30.12S
$$

TNZ012-013-036-069-073-074-221100-
CENTRAL EAST TENNESSEE

CITY           SKY/WX    TMP DP  RH WIND       PRES   REMARKS
KNOXVILLE      CLOUDY    69  67  93 CALM      30.09R
OAK RIDGE      CLOUDY    70  67  90 CALM      30.11R
DOWNTOWN KNOXV CLOUDY    68  66  94 CALM      30.10S
GATLINBURG     CLOUDY    66  66 100 CALM      30.10S
MORRISTOWN     CLOUDY    66  66 100 CALM      30.11R
JACKSBORO      CLOUDY    64  63  94 CALM      30.14R
$$

TNZ083-085-099-221100-
SOUTHEAST TENNESSEE

CITY           SKY/WX    TMP DP  RH WIND       PRES   REMARKS
CHATTANOOGA    MOCLDY    72  62  71 SE5       30.08S
DAYTON         CLOUDY    68  66  94 CALM      30.08R
$$

SKY/WX REPORTED AS FAIR MEANS FEW OR NO CLOUDS BELOW
12 THOUSAND FEET.





USA.gov is the U.S. government's official web portal to all federal, state and local government web resources and services.